Location: New Canada
(47.1017°N, 68.5042°W)
Time: 13:33:41
(UTC+00:00)

N. Korean satellite - Pass Details

Date: 06 December 2022
Orbit: 407 x 441 km, 97.3° (Epoch: 05 February)

Event Time Altitude Azimuth Distance (km) Brightness Sun altitude
Rises 21:58:02 0° 205° (SSW) 2,460 10.9 -11.9°
Reaches altitude 10° 22:00:39 10° 228° (SW) 1,605 10.4 -12.3°
Maximum altitude 22:02:53 16° 268° (W) 1,284 9.8 -12.7°
Drops below altitude 10° 22:05:08 10° 309° (NW) 1,630 9.7 -13.1°
Sets 22:07:49 0° 331° (NNW) 2,519 10.3 -13.5°
